Flag for Turkey Weather past 2 weeks in Izmir, Turkey

Now
88 °F

Broken clouds.


Feels Like: 90 °F
Forecast: 57 / 79 °F
Wind: 20 mph from South

Location: Izmir / Adnan Menderes

Current Time: Sep 23, 2014 at 4:23:53 PM

Latest Report: Sep 23, 2014 at 3:50 PM


Visibility: N/A

Pressure: 29.74 "Hg

Humidity: 49%

Dew point: 66 °F

Location of IzmirLocation

Historic Weather in Izmir — Graph

°F

Izmir temperature yesterday

Maximum temperature yesterday: 88 °F (at 2:20 PM)
Minimum temperature yesterday: 59 °F (at 6:50 AM)
Average temperature yesterday: 74 °F

Past Weeks' High & Low Weather Summary

 TemperatureHumidityPressure
High90 °F (Sep 11, 2:20 PM)88% (Sep 9, 2:50 AM)30.12 "Hg (Sep 9, 2:50 AM)
Low55 °F (Sep 21, 6:20 AM)16% (Sep 21, 2:20 PM)29.74 "Hg (Sep 23, 12:50 PM)
Average75 °F57%29.89 "Hg
* Reported Sep 8 2:20 PM — Sep 23 2:50 PM, Izmir, Weather by CustomWeather, © 2014

Note: Actual official high and low records may vary slightly from our data, if they occured in-between our weather recording intervals... More about our weather records

Advertising

Izmir weather history for previous 24 hours

 ConditionsComfort  
Time TempWeatherWind HumidityBarometerVisibility
2:50 PM
Sep 23
88 °FPartly sunny.21 mph49%29.74 "HgN/A
2:20 PM88 °FScattered clouds.18 mph46%29.74 "HgN/A
1:50 PM88 °FScattered clouds.18 mph49%29.74 "HgN/A
1:20 PM86 °FScattered clouds.18 mph52%29.77 "HgN/A
12:50 PM86 °FScattered clouds.18 mph52%29.74 "HgN/A
12:20 PM86 °FScattered clouds.18 mph55%29.77 "HgN/A
11:50 AM86 °FScattered clouds.17 mph55%29.77 "HgN/A
11:20 AM84 °FScattered clouds.13 mph55%29.77 "HgN/A
10:50 AM82 °FScattered clouds.13 mph58%29.77 "HgN/A
10:20 AM81 °FScattered clouds.12 mph58%29.80 "HgN/A
9:50 AM79 °FScattered clouds.8 mph54%29.80 "HgN/A
9:20 AM75 °FScattered clouds.7 mph61%29.80 "HgN/A
8:50 AM72 °FScattered clouds.6 mph69%29.80 "HgN/A
8:20 AM70 °FScattered clouds.5 mph73%29.80 "HgN/A
7:50 AM68 °FPassing clouds.7 mph73%29.80 "HgN/A
7:20 AM68 °FPassing clouds.3 mph73%29.80 "HgN/A
6:50 AM66 °FClear.5 mph78%29.80 "Hg10 mi
6:20 AM66 °FPassing clouds.5 mph78%29.80 "HgN/A
5:50 AM66 °FClear.6 mph83%29.80 "Hg10 mi
5:20 AM64 °FClear.5 mph83%29.80 "Hg10 mi
4:50 AM66 °FClear.5 mph78%29.80 "Hg10 mi
3:50 AM68 °FPassing clouds.3 mph78%29.80 "HgN/A
3:20 AM68 °FClear.2 mph78%29.80 "Hg10 mi
2:50 AM68 °FClear.2 mph78%29.80 "Hg10 mi
2:20 AM68 °FClear.2 mph78%29.80 "Hg10 mi
1:50 AM68 °FClear.6 mph78%29.80 "Hg10 mi
1:20 AM68 °FClear.6 mph78%29.83 "Hg10 mi
12:50 AM70 °FPassing clouds.6 mph73%29.83 "HgN/A
12:20 AM68 °FClear.5 mph78%29.83 "Hg10 mi
11:50 PM
Sep 22
70 °FClear.2 mph78%29.83 "Hg10 mi
11:20 PM72 °FClear.5 mph73%29.83 "Hg10 mi
10:50 PM72 °FPassing clouds.6 mph73%29.83 "HgN/A
10:20 PM72 °FClear.5 mph73%29.83 "Hg10 mi
9:50 PM72 °FClear.6 mph73%29.83 "Hg10 mi
9:20 PM75 °FClear.8 mph65%29.83 "Hg10 mi
8:50 PM75 °FPassing clouds.6 mph65%29.83 "HgN/A
8:20 PM77 °FClear.10 mph65%29.83 "Hg10 mi
7:50 PM79 °FSunny.9 mph58%29.80 "Hg10 mi
7:20 PM79 °FSunny.10 mph58%29.80 "Hg10 mi
6:50 PM81 °FPassing clouds.7 mph54%29.80 "HgN/A
6:20 PM82 °FPassing clouds.9 mph51%29.80 "HgN/A
5:50 PM84 °FPassing clouds.13 mph48%29.80 "HgN/A
5:20 PM86 °FPassing clouds.13 mph40%29.80 "HgN/A
4:50 PM86 °FPassing clouds.14 mph40%29.80 "HgN/A
4:20 PM86 °FPassing clouds.14 mph40%29.80 "HgN/A
Weather by CustomWeather, © 2014

See weather overviewHow to use our weather pages